This is the latest recevied weather packets stored in our database for station/object YD2CLX-13. If no packets are shown the sender has not sent any weather packets the latest 10 day(s).
| Time | Temp. | Humidity | Pressure | Rain* | Wind** | Luminosity | Snow |
|---|---|---|---|---|---|---|---|
| 1777930761 | 7.22° C | 70% | 796.6 hPa | 0 mm | - | - | - |
| 1777930140 | 7.22° C | 70% | 796.6 hPa | 0 mm | - | - | - |
| 1777929525 | 7.22° C | 71% | 796.6 hPa | 0 mm | - | - | - |
| 1777928910 | 7.22° C | 71% | 796.7 hPa | 0 mm | - | - | - |
| 1777928295 | 7.78° C | 71% | 796.8 hPa | 0 mm | - | - | - |
| 1777927680 | 8.33° C | 71% | 796.7 hPa | 0 mm | - | - | - |
| 1777927065 | 7.78° C | 71% | 796.6 hPa | 0 mm | - | - | - |
| 1777926458 | 8.33° C | 71% | 796.7 hPa | 0 mm | - | - | - |
| 1777925849 | 8.33° C | 71% | 796.7 hPa | 0 mm | - | - | - |
| 1777925238 | 7.78° C | 71% | 796.8 hPa | 0 mm | - | - | - |
| 1777923415 | 7.78° C | 70% | 796.9 hPa | 0 mm | - | - | - |
| 1777922808 | 8.33° C | 71% | 796.9 hPa | 0 mm | - | - | - |
| 1777922200 | 8.89° C | 71% | 797 hPa | 0 mm | - | - | - |
| 1777921592 | 8.89° C | 71% | 797 hPa | 0 mm | - | - | - |
| 1777920983 | 8.33° C | 70% | 797 hPa | 0 mm | - | - | - |
| 1777920373 | 7.78° C | 70% | 797.1 hPa | 0 mm | - | - | - |
| 1777919157 | 7.78° C | 70% | 797.2 hPa | 0 mm | - | - | - |
| 1777918547 | 7.78° C | 70% | 797.3 hPa | 0 mm | - | - | - |
| 1777917331 | 8.33° C | 70% | 797.5 hPa | 0 mm | - | - | - |
| 1777916721 | 8.89° C | 70% | 797.4 hPa | 0 mm | - | - | - |
| 1777916114 | 8.89° C | 70% | 797.7 hPa | 0 mm | - | - | - |
| 1777915506 | 8.89° C | 70% | 797.9 hPa | 0 mm | - | - | - |
| 1777914897 | 8.89° C | 69% | 798.1 hPa | 0 mm | - | - | - |
| 1777914288 | 9.44° C | 69% | 798.2 hPa | 0 mm | - | - | - |
| 1777913680 | 9.44° C | 69% | 798.2 hPa | 0 mm | - | - | - |
* Rain latest hour (hover to see other rain measurements)
** Current wind speed in m/s (hover to see current wind gust speed)